MEXSAT 3

Last updated on Sun Apr 12 2026 00:02:53 GMT+0000 (Coordinated Universal Time)

1 39035U 12075B 26101.37058610 -.00000025 00000+0 00000+0 0 9991 2 39035 0.0113 157.6274 0001232 218.6709 201.9572 1.00278473 6385
UTC large
Height (km)
Speed (km/s)
/
Latitude / Longitude
Inclination (degrees)
Orbital Period (minutes)
Azimuth
Elevation
Range (km)
Doppler Factor

Next 0 passes for location: London (51.5072 / 0.1276)

Sorry there are no passes over London.
MEXSAT 3